Date String (YYYY-MM-DD hh:mm:ss) UTC,Instrument flags,Ambient pressure (hPa),Sample flow (lpm),Bypass flow (lpm),Sample temperature (°C),Ambient temperature (°C),ASC tube jacket temperature (°C),LED temperature (°C),Box temperature (°C),Sample RH (%),Mass concentration (μg/m³),Mass concentration (μg/m³)
DateTimeUTC,F1_M11,P_M11,Q1_M11,Q2_M11,T1_M11,T2_M11,T3_M11,T4_M11,T5_M11,U1_M11,X0_M11,X2_M11
2021-08-18 03:00:00,,0822.4,5.00,0.00,29.1,25.5,00.0,38.2,30.4,20.6,0019.98,0014.74
2021-08-18 03:01:00,,0822.4,5.01,0.00,29.0,25.8,00.0,38.2,30.5,20.5,0020.22,0014.78
2021-08-18 03:02:00,,0822.4,4.99,0.00,29.0,26.3,00.0,38.1,30.6,20.5,0020.26,0014.87
2021-08-18 03:03:00,,0822.4,5.00,0.00,29.0,26.7,00.0,38.1,30.7,20.6,0020.23,0014.94
2021-08-18 03:04:00,,0822.4,5.00,0.00,29.0,27.1,00.0,38.1,30.8,20.3,0020.35,0015.05
2021-08-18 03:05:00,,0822.4,5.01,0.00,29.0,27.4,00.0,38.1,30.8,20.3,0020.82,0015.14
2021-08-18 03:06:00,,0822.4,5.00,0.00,29.1,27.7,00.0,38.1,30.9,20.3,0021.07,0015.19
2021-08-18 03:07:00,,0822.4,4.98,0.00,29.1,27.9,00.0,38.1,31.0,20.3,0021.10,0015.23
2021-08-18 03:08:00,,0822.4,5.01,0.00,29.2,28.1,00.0,38.2,31.1,20.2,0021.13,0015.27
2021-08-18 03:09:00,,0822.4,5.00,0.00,29.2,28.2,00.0,38.2,31.1,20.2,0020.97,0015.31
2021-08-18 03:10:00,,0822.4,5.00,0.00,29.3,28.3,00.0,38.2,31.2,20.2,0020.50,0015.34
2021-08-18 03:11:00,,0822.5,5.00,0.00,29.3,28.5,00.0,38.2,31.2,20.1,0020.07,0015.36
2021-08-18 03:12:00,,0822.5,5.00,0.00,29.4,28.6,00.0,38.3,31.3,20.1,0019.84,0015.37
2021-08-18 03:13:00,,0822.6,5.01,0.00,29.4,28.4,00.0,38.3,31.3,20.0,0019.90,0015.40
2021-08-18 03:14:00,,0822.5,5.00,0.00,29.3,26.8,00.0,38.3,30.7,20.2,0019.87,0015.38
2021-08-18 03:15:00,,0822.5,5.01,0.00,29.2,26.3,00.0,38.3,30.6,20.3,0019.83,0015.35
2021-08-18 03:16:00,,0822.6,5.00,0.00,29.2,26.5,00.0,38.3,30.7,20.3,0019.36,0015.35
2021-08-18 03:17:00,,0822.6,5.00,0.00,29.1,26.9,00.0,38.2,30.8,20.3,0019.27,0015.38
2021-08-18 03:18:00,,0822.6,5.00,0.00,29.1,27.2,00.0,38.2,30.9,20.3,0019.19,0015.36
2021-08-18 03:19:00,,0822.6,5.00,0.00,29.2,27.6,00.0,38.2,31.0,20.2,0019.20,0015.35
2021-08-18 03:20:00,,0822.6,5.00,0.00,29.2,27.8,00.0,38.2,31.1,20.1,0019.26,0015.40
2021-08-18 03:21:00,,0822.6,5.00,0.00,29.3,28.0,00.0,38.3,31.1,20.9,0019.28,0015.44
2021-08-18 03:22:00,,0822.6,4.99,0.00,29.3,28.2,00.0,38.3,31.2,21.6,0019.40,0015.43
2021-08-18 03:23:00,,0822.6,5.01,0.00,29.4,28.4,00.0,38.3,31.3,21.6,0019.39,0015.41
2021-08-18 03:24:00,,0822.5,4.99,0.00,29.4,28.5,00.0,38.3,31.3,21.3,0019.36,0015.37
2021-08-18 03:25:00,,0822.6,5.01,0.00,29.4,28.0,00.0,38.4,31.2,20.8,0019.41,0015.37
2021-08-18 03:26:00,,0822.5,4.98,0.00,29.3,26.4,00.0,38.3,30.7,20.7,0019.37,0015.37
2021-08-18 03:27:00,,0822.5,5.00,0.00,29.2,26.3,00.0,38.3,30.7,20.5,0019.49,0015.38
2021-08-18 03:28:00,,0822.4,5.01,0.00,29.2,26.6,00.0,38.3,30.8,20.5,0019.51,0015.37
2021-08-18 03:29:00,,0822.5,5.00,0.00,29.1,27.0,00.0,38.3,30.8,20.5,0019.88,0015.41
2021-08-18 03:30:00,,0822.6,5.00,0.00,29.2,27.3,00.0,38.3,30.9,20.4,0019.98,0015.43
2021-08-18 03:31:00,,0822.6,5.00,0.00,29.2,27.6,00.0,38.3,31.0,20.3,0020.05,0015.42
2021-08-18 03:32:00,,0822.6,5.01,0.00,29.2,27.9,00.0,38.3,31.1,20.4,0020.04,0015.38
2021-08-18 03:33:00,,0822.6,5.01,0.00,29.3,28.1,00.0,38.3,31.2,21.0,0020.00,0015.44
2021-08-18 03:34:00,,0822.6,5.00,0.00,29.3,28.2,00.0,38.3,31.2,21.1,0020.81,0015.46
2021-08-18 03:35:00,,0822.7,4.99,0.00,29.4,28.4,00.0,38.3,31.3,20.7,0021.16,0015.47
2021-08-18 03:36:00,,0822.7,5.00,0.00,29.4,28.5,00.0,38.4,31.3,20.6,0021.16,0015.47
2021-08-18 03:37:00,,0822.7,5.00,0.00,29.5,28.4,00.0,38.4,31.3,20.6,0021.15,0015.47
2021-08-18 03:38:00,,0822.7,5.00,0.00,29.4,26.7,00.0,38.4,30.8,20.9,0020.99,0015.45
2021-08-18 03:39:00,,0822.7,4.99,0.00,29.2,25.3,00.0,38.3,30.4,21.1,0021.03,0015.44
2021-08-18 03:40:00,,0822.7,5.02,0.00,29.1,25.5,00.0,38.3,30.5,21.2,0020.80,0015.42
2021-08-18 03:41:00,,0822.7,5.00,0.00,29.0,26.0,00.0,38.3,30.6,21.4,0022.19,0015.41
2021-08-18 03:42:00,,0822.7,4.99,0.00,29.0,26.4,00.0,38.2,30.7,21.3,0022.45,0015.40
2021-08-18 03:43:00,,0822.8,5.00,0.00,29.0,26.9,00.0,38.2,30.8,21.3,0023.64,0015.40
2021-08-18 03:44:00,,0822.8,4.99,0.00,29.1,27.2,00.0,38.2,30.8,21.3,0024.84,0015.34
2021-08-18 03:45:00,,0822.8,5.01,0.00,29.1,27.5,00.0,38.2,30.9,21.4,0024.24,0015.30
2021-08-18 03:46:00,,0822.8,4.99,0.00,29.1,27.8,00.0,38.2,31.0,21.3,0024.27,0015.27
2021-08-18 03:47:00,,0822.8,5.00,0.00,29.2,28.0,00.0,38.2,31.1,21.2,0024.55,0015.27
2021-08-18 03:48:00,,0822.8,4.99,0.00,29.2,28.1,00.0,38.2,31.1,21.0,0024.83,0015.25
2021-08-18 03:49:00,,0822.8,5.02,0.00,29.3,28.3,00.0,38.3,31.2,20.9,0024.90,0015.22
2021-08-18 03:50:00,,0822.8,5.00,0.00,29.3,28.4,00.0,38.3,31.2,20.8,0024.81,0015.20
2021-08-18 03:51:00,,0822.8,5.02,0.00,29.4,28.5,00.0,38.3,31.3,20.7,0024.83,0015.20
2021-08-18 03:52:00,,0822.8,5.00,0.00,29.4,28.6,00.0,38.3,31.3,20.3,0023.45,0015.23
2021-08-18 03:53:00,,0822.8,4.99,0.00,29.5,28.5,00.0,38.4,31.3,20.2,0023.61,0015.24
2021-08-18 03:54:00,,0822.7,5.01,0.00,29.4,26.7,00.0,38.3,30.8,20.2,0022.34,0015.25
2021-08-18 03:55:00,,0822.7,4.99,0.00,29.2,25.3,00.0,38.3,30.4,20.3,0021.17,0015.27
2021-08-18 03:56:00,,0822.7,5.02,0.00,29.1,25.5,00.0,38.3,30.5,20.4,0021.00,0015.32
2021-08-18 03:57:00,,0822.6,5.00,0.00,29.0,25.9,00.0,38.2,30.5,20.4,0020.66,0015.35
2021-08-18 03:58:00,,0822.6,5.01,0.00,29.0,26.4,00.0,38.2,30.6,20.4,0020.61,0015.36
2021-08-18 03:59:00,,0822.7,4.98,0.00,29.0,26.8,00.0,38.2,30.7,20.4,0020.78,0015.36
